Time,TemperatureF,DewpointF,PressureIn,WindDirection,WindDirectionDegrees,WindSpeedMPH,WindSpeedGustMPH,Humidity,HourlyPrecipIn,Conditions,Clouds,dailyrainin,SoftwareType,DateUTC
2013-05-14 00:02:00,47.0,32.0,30.02,SE,146,4.0,10.0,55,0.00,,,0.00,,2013-05-14 05:02:00,
2013-05-14 00:12:00,47.0,32.0,30.02,SE,146,4.0,10.0,55,0.00,,,0.00,,2013-05-14 05:12:00,
2013-05-14 00:21:00,48.0,32.0,30.01,SE,141,5.0,22.0,53,0.00,,,0.00,,2013-05-14 05:21:00,
2013-05-14 00:32:00,48.0,31.0,30.00,SSW,205,5.0,14.0,52,0.00,,,0.00,,2013-05-14 05:32:00,
2013-05-14 00:42:00,49.0,32.0,29.99,SSW,195,6.0,15.0,52,0.00,,,0.00,,2013-05-14 05:42:00,
2013-05-14 00:52:00,49.0,32.0,29.99,SSW,195,6.0,15.0,52,0.00,,,0.00,,2013-05-14 05:52:00,
2013-05-14 01:01:00,49.0,32.0,29.98,SSE,167,5.0,17.0,52,0.00,,,0.00,,2013-05-14 06:01:00,
2013-05-14 01:12:00,49.0,32.0,29.98,SSE,167,5.0,17.0,52,0.00,,,0.00,,2013-05-14 06:12:00,
2013-05-14 01:22:00,49.0,33.0,29.97,SSW,201,5.0,17.0,53,0.00,,,0.00,,2013-05-14 06:22:00,
2013-05-14 01:32:00,49.0,33.0,29.96,SSW,207,6.0,16.0,54,0.00,,,0.00,,2013-05-14 06:32:00,
2013-05-14 01:42:00,49.0,33.0,29.96,SSW,207,6.0,16.0,54,0.00,,,0.00,,2013-05-14 06:42:00,
2013-05-14 01:52:00,49.0,33.0,29.95,SSW,210,5.0,12.0,54,0.00,,,0.00,,2013-05-14 06:52:00,
2013-05-14 02:02:00,49.0,33.0,29.94,SSW,211,8.0,16.0,54,0.00,,,0.00,,2013-05-14 07:02:00,
2013-05-14 02:11:00,49.0,33.0,29.94,SSW,211,8.0,16.0,54,0.00,,,0.00,,2013-05-14 07:11:00,
2013-05-14 02:21:00,50.0,34.0,29.93,SW,215,6.0,14.0,54,0.00,,,0.00,,2013-05-14 07:21:00,
2013-05-14 02:31:00,51.0,34.0,29.92,SSW,207,5.0,16.0,52,0.00,,,0.00,,2013-05-14 07:31:00,
2013-05-14 02:41:00,51.0,34.0,29.92,SSW,205,6.0,17.0,53,0.00,,,0.00,,2013-05-14 07:41:00,
2013-05-14 02:52:00,51.0,34.0,29.92,SSW,205,6.0,17.0,53,0.00,,,0.00,,2013-05-14 07:52:00,
2013-05-14 03:02:00,51.0,35.0,29.91,SSW,209,5.0,14.0,54,0.00,,,0.00,,2013-05-14 08:02:00,
2013-05-14 03:11:00,51.0,35.0,29.91,SSW,209,5.0,14.0,54,0.00,,,0.00,,2013-05-14 08:11:00,
2013-05-14 03:21:00,51.0,35.0,29.90,SW,234,5.0,15.0,55,0.00,,,0.00,,2013-05-14 08:21:00,
2013-05-14 03:31:00,51.0,36.0,29.90,SW,229,3.0,17.0,56,0.00,,,0.00,,2013-05-14 08:31:00,
2013-05-14 03:41:00,51.0,36.0,29.89,SW,229,5.0,16.0,57,0.00,,,0.00,,2013-05-14 08:41:00,
2013-05-14 03:52:00,51.0,36.0,29.89,SW,229,5.0,16.0,57,0.00,,,0.00,,2013-05-14 08:52:00,
2013-05-14 04:01:00,51.0,36.0,29.88,SSE,156,3.0,13.0,57,0.00,,,0.00,,2013-05-14 09:01:00,
2013-05-14 04:11:00,51.0,36.0,29.88,SSE,156,3.0,13.0,57,0.00,,,0.00,,2013-05-14 09:11:00,
2013-05-14 04:22:00,52.0,38.0,29.87,South,191,5.0,16.0,58,0.00,,,0.00,,2013-05-14 09:22:00,
2013-05-14 04:32:00,52.0,38.0,29.85,SSW,207,5.0,18.0,58,0.00,,,0.00,,2013-05-14 09:32:00,
2013-05-14 04:44:00,53.0,39.0,29.85,SW,217,7.0,17.0,58,0.00,,,0.00,,2013-05-14 09:44:00,
2013-05-14 04:54:00,53.0,39.0,29.85,SW,217,7.0,17.0,58,0.00,,,0.00,,2013-05-14 09:54:00,
2013-05-14 05:04:00,53.0,39.0,29.84,SSW,208,6.0,15.0,58,0.00,,,0.00,,2013-05-14 10:04:00,
2013-05-14 05:14:00,53.0,39.0,29.84,SSW,208,6.0,15.0,58,0.00,,,0.00,,2013-05-14 10:14:00,
2013-05-14 05:25:00,54.0,40.0,29.83,SW,236,4.0,12.0,58,0.00,,,0.00,,2013-05-14 10:25:00,
2013-05-14 05:33:00,54.0,40.0,29.83,SSW,193,6.0,15.0,58,0.00,,,0.00,,2013-05-14 10:33:00,
2013-05-14 05:42:00,54.0,40.0,29.83,SSW,193,6.0,15.0,58,0.00,,,0.00,,2013-05-14 10:42:00,
2013-05-14 05:52:00,55.0,41.0,29.83,SW,228,7.0,14.0,58,0.00,,,0.00,,2013-05-14 10:52:00,
2013-05-14 06:02:00,55.0,41.0,29.83,WSW,244,7.0,16.0,58,0.00,,,0.00,,2013-05-14 11:02:00,
2013-05-14 06:11:00,55.0,41.0,29.83,WSW,244,7.0,16.0,58,0.00,,,0.00,,2013-05-14 11:11:00,
2013-05-14 06:21:00,55.0,41.0,29.83,SW,234,5.0,17.0,59,0.00,,,0.00,,2013-05-14 11:21:00,
2013-05-14 06:32:00,56.0,42.0,29.82,SW,232,5.0,15.0,59,0.00,,,0.00,,2013-05-14 11:32:00,
2013-05-14 06:43:00,56.0,42.0,29.82,SW,232,5.0,15.0,59,0.00,,,0.00,,2013-05-14 11:43:00,
2013-05-14 06:53:00,56.0,42.0,29.82,SW,220,7.0,14.0,59,0.00,,,0.00,,2013-05-14 11:53:00,
2013-05-14 07:02:00,57.0,43.0,29.82,SW,232,9.0,17.0,59,0.00,,,0.00,,2013-05-14 12:02:00,
2013-05-14 07:12:00,57.0,43.0,29.82,SW,232,9.0,17.0,59,0.00,,,0.00,,2013-05-14 12:12:00,
2013-05-14 07:21:00,57.0,43.0,29.81,SW,235,9.0,17.0,59,0.00,,,0.00,,2013-05-14 12:21:00,
2013-05-14 07:32:00,58.0,44.0,29.81,SW,219,8.0,17.0,60,0.00,,,0.00,,2013-05-14 12:32:00,
2013-05-14 07:42:00,58.0,44.0,29.81,WSW,244,5.0,20.0,60,0.00,,,0.00,,2013-05-14 12:42:00,
2013-05-14 07:52:00,58.0,44.0,29.81,WSW,244,5.0,20.0,60,0.00,,,0.00,,2013-05-14 12:52:00,
2013-05-14 08:01:00,59.0,45.0,29.80,West,262,5.0,21.0,60,0.00,,,0.00,,2013-05-14 13:01:00,
2013-05-14 08:11:00,59.0,45.0,29.80,West,262,5.0,21.0,60,0.00,,,0.00,,2013-05-14 13:11:00,
2013-05-14 08:22:00,60.0,46.0,29.80,SW,236,7.0,18.0,60,0.00,,,0.00,,2013-05-14 13:22:00,
2013-05-14 08:32:00,60.0,46.0,29.80,WSW,246,5.0,16.0,60,0.00,,,0.00,,2013-05-14 13:32:00,
2013-05-14 08:41:00,60.0,46.0,29.80,WSW,246,5.0,16.0,60,0.00,,,0.00,,2013-05-14 13:41:00,
2013-05-14 08:52:00,60.0,46.0,29.80,WSW,246,5.0,16.0,60,0.00,,,0.00,,2013-05-14 13:52:00,
2013-05-14 09:01:00,63.0,48.0,29.80,West,261,4.0,12.0,59,0.00,,,0.00,,2013-05-14 14:01:00,
2013-05-14 09:11:00,64.0,49.0,29.80,West,268,7.0,16.0,59,0.00,,,0.00,,2013-05-14 14:11:00,
2013-05-14 09:22:00,64.0,49.0,29.80,West,268,7.0,16.0,59,0.00,,,0.00,,2013-05-14 14:22:00,
2013-05-14 09:31:00,64.0,49.0,29.79,West,261,8.0,15.0,58,0.00,,,0.00,,2013-05-14 14:31:00,
2013-05-14 09:41:00,64.0,49.0,29.79,West,261,8.0,15.0,58,0.00,,,0.00,,2013-05-14 14:41:00,
2013-05-14 09:52:00,65.0,49.0,29.79,SW,236,5.0,13.0,57,0.00,,,0.00,,2013-05-14 14:52:00,
2013-05-14 10:01:00,66.0,50.0,29.78,West,263,9.0,17.0,56,0.00,,,0.00,,2013-05-14 15:01:00,
2013-05-14 10:12:00,66.0,50.0,29.78,West,263,9.0,17.0,56,0.00,,,0.00,,2013-05-14 15:12:00,
2013-05-14 10:21:00,67.0,51.0,29.79,West,272,4.0,15.0,56,0.00,,,0.00,,2013-05-14 15:21:00,
2013-05-14 10:33:00,68.0,51.0,29.79,West,262,6.0,12.0,55,0.00,,,0.00,,2013-05-14 15:33:00,
2013-05-14 10:43:00,69.0,51.0,29.79,NW,311,7.0,12.0,52,0.00,,,0.00,,2013-05-14 15:43:00,
2013-05-14 10:53:00,69.0,51.0,29.79,NW,311,7.0,12.0,52,0.00,,,0.00,,2013-05-14 15:53:00,
2013-05-14 11:02:00,70.0,52.0,29.81,West,265,5.0,14.0,52,0.00,,,0.00,,2013-05-14 16:02:00,
2013-05-14 11:12:00,70.0,52.0,29.81,West,265,5.0,14.0,52,0.00,,,0.00,,2013-05-14 16:12:00,
2013-05-14 11:23:00,71.0,51.0,29.82,NW,321,7.0,12.0,50,0.00,,,0.00,,2013-05-14 16:23:00,
2013-05-14 11:33:00,71.0,51.0,29.81,WNW,291,7.0,11.0,50,0.00,,,0.00,,2013-05-14 16:33:00,
2013-05-14 11:43:00,71.0,51.0,29.81,WNW,291,7.0,11.0,50,0.00,,,0.00,,2013-05-14 16:43:00,
2013-05-14 11:54:00,72.0,53.0,29.81,WNW,300,1.0,11.0,51,0.00,,,0.00,,2013-05-14 16:54:00,
2013-05-14 12:03:00,72.0,51.0,29.82,WNW,296,5.0,8.0,47,0.00,,,0.00,,2013-05-14 17:03:00,
2013-05-14 12:13:00,72.0,51.0,29.82,WNW,296,5.0,8.0,47,0.00,,,0.00,,2013-05-14 17:13:00,
2013-05-14 12:24:00,73.0,53.0,29.82,West,274,4.0,8.0,49,0.00,,,0.00,,2013-05-14 17:24:00,
2013-05-14 12:32:00,74.0,53.0,29.82,WNW,286,4.0,8.0,48,0.00,,,0.00,,2013-05-14 17:32:00,
2013-05-14 12:43:00,74.0,53.0,29.82,WNW,286,4.0,8.0,48,0.00,,,0.00,,2013-05-14 17:43:00,
2013-05-14 12:52:00,75.0,53.0,29.82,NW,304,4.0,6.0,46,0.00,,,0.00,,2013-05-14 17:52:00,
2013-05-14 13:02:00,75.0,52.0,29.82,West,264,5.0,10.0,45,0.00,,,0.00,,2013-05-14 18:02:00,
2013-05-14 13:12:00,75.0,52.0,29.82,West,264,5.0,10.0,45,0.00,,,0.00,,2013-05-14 18:12:00,
2013-05-14 13:22:00,76.0,54.0,29.82,NNE,15,3.0,9.0,47,0.00,,,0.00,,2013-05-14 18:22:00,
2013-05-14 13:32:00,76.0,53.0,29.82,West,264,1.0,7.0,45,0.00,,,0.00,,2013-05-14 18:32:00,
2013-05-14 13:42:00,76.0,53.0,29.82,West,264,1.0,7.0,45,0.00,,,0.00,,2013-05-14 18:42:00,
2013-05-14 13:52:00,78.0,54.0,29.82,West,269,2.0,7.0,44,0.00,,,0.00,,2013-05-14 18:52:00,
2013-05-14 14:01:00,78.0,53.0,29.81,West,275,1.0,5.0,42,0.00,,,0.00,,2013-05-14 19:01:00,
2013-05-14 14:12:00,78.0,53.0,29.81,West,275,1.0,5.0,42,0.00,,,0.00,,2013-05-14 19:12:00,
2013-05-14 14:22:00,78.0,51.0,29.82,WNW,289,1.0,5.0,39,0.00,,,0.00,,2013-05-14 19:22:00,
2013-05-14 14:32:00,80.0,51.0,29.83,WNW,294,5.0,12.0,37,0.00,,,0.00,,2013-05-14 19:32:00,
2013-05-14 14:42:00,80.0,51.0,29.83,WNW,294,5.0,12.0,37,0.00,,,0.00,,2013-05-14 19:42:00,
2013-05-14 14:52:00,80.0,51.0,29.83,NW,304,4.0,10.0,37,0.00,,,0.00,,2013-05-14 19:52:00,
2013-05-14 15:02:00,81.0,50.0,29.83,West,273,6.0,15.0,34,0.00,,,0.00,,2013-05-14 20:02:00,
2013-05-14 15:11:00,81.0,50.0,29.83,West,273,6.0,15.0,34,0.00,,,0.00,,2013-05-14 20:11:00,
2013-05-14 15:23:00,80.0,51.0,29.83,WNW,289,5.0,12.0,36,0.00,,,0.00,,2013-05-14 20:23:00,
2013-05-14 15:32:00,80.0,50.0,29.83,NNW,338,7.0,9.0,35,0.00,,,0.00,,2013-05-14 20:32:00,
2013-05-14 15:44:00,80.0,49.0,29.81,NE,47,4.0,10.0,34,0.00,,,0.00,,2013-05-14 20:44:00,
2013-05-14 15:52:00,80.0,49.0,29.81,NE,47,4.0,10.0,34,0.00,,,0.00,,2013-05-14 20:52:00,
2013-05-14 16:03:00,80.0,49.0,29.79,ESE,111,3.0,7.0,34,0.00,,,0.00,,2013-05-14 21:03:00,
2013-05-14 16:12:00,80.0,49.0,29.79,ESE,111,3.0,7.0,34,0.00,,,0.00,,2013-05-14 21:12:00,
2013-05-14 16:23:00,77.0,52.0,29.76,SE,130,5.0,14.0,42,0.00,,,0.00,,2013-05-14 21:23:00,
2013-05-14 16:33:00,75.0,53.0,29.77,SE,146,3.0,22.0,46,0.00,,,0.00,,2013-05-14 21:33:00,
2013-05-14 16:43:00,76.0,53.0,29.73,SSE,163,3.0,14.0,45,0.00,,,0.00,,2013-05-14 21:43:00,
2013-05-14 16:53:00,76.0,53.0,29.73,SSE,163,3.0,14.0,45,0.00,,,0.00,,2013-05-14 21:53:00,
2013-05-14 17:03:00,76.0,54.0,29.75,SE,132,2.0,8.0,46,0.00,,,0.00,,2013-05-14 22:03:00,
2013-05-14 17:13:00,76.0,54.0,29.75,SE,132,2.0,8.0,46,0.00,,,0.00,,2013-05-14 22:13:00,
2013-05-14 17:24:00,77.0,55.0,29.75,SE,142,1.0,9.0,46,0.00,,,0.00,,2013-05-14 22:24:00,
2013-05-14 17:34:00,76.0,54.0,29.75,East,98,4.0,11.0,47,0.00,,,0.00,,2013-05-14 22:34:00,
2013-05-14 17:45:00,76.0,54.0,29.75,East,98,4.0,11.0,47,0.00,,,0.00,,2013-05-14 22:45:00,
2013-05-14 17:54:00,74.0,54.0,29.74,South,178,3.0,10.0,49,0.00,,,0.00,,2013-05-14 22:54:00,
2013-05-14 18:03:00,74.0,54.0,29.74,ESE,105,5.0,12.0,49,0.00,,,0.00,,2013-05-14 23:03:00,
2013-05-14 18:12:00,74.0,54.0,29.74,ESE,105,5.0,12.0,49,0.00,,,0.00,,2013-05-14 23:12:00,
2013-05-14 18:21:00,73.0,53.0,29.75,East,92,7.0,14.0,49,0.00,,,0.00,,2013-05-14 23:21:00,
2013-05-14 18:31:00,74.0,54.0,29.73,ESE,120,4.0,14.0,49,0.00,,,0.00,,2013-05-14 23:31:00,
2013-05-14 18:44:00,74.0,54.0,29.73,ESE,120,4.0,14.0,49,0.00,,,0.00,,2013-05-14 23:44:00,
2013-05-14 18:52:00,73.0,53.0,29.72,ESE,123,5.0,14.0,50,0.00,,,0.00,,2013-05-14 23:52:00,
2013-05-14 19:02:00,72.0,53.0,29.71,South,191,3.0,9.0,51,0.00,,,0.00,,2013-05-15 00:02:00,
2013-05-14 19:11:00,72.0,53.0,29.71,South,191,3.0,9.0,51,0.00,,,0.00,,2013-05-15 00:11:00,
2013-05-14 19:21:00,71.0,52.0,29.70,ESE,121,4.0,10.0,52,0.00,,,0.00,,2013-05-15 00:21:00,
2013-05-14 19:32:00,70.0,53.0,29.71,ESE,121,2.0,8.0,54,0.00,,,0.00,,2013-05-15 00:32:00,
2013-05-14 19:42:00,70.0,54.0,29.71,SE,127,3.0,11.0,56,0.00,,,0.00,,2013-05-15 00:42:00,
2013-05-14 19:52:00,70.0,54.0,29.71,SE,127,3.0,11.0,56,0.00,,,0.00,,2013-05-15 00:52:00,
2013-05-14 20:01:00,68.0,53.0,29.70,South,186,4.0,13.0,58,0.00,,,0.00,,2013-05-15 01:01:00,
2013-05-14 20:11:00,68.0,53.0,29.70,South,186,4.0,13.0,58,0.00,,,0.00,,2013-05-15 01:11:00,
2013-05-14 20:21:00,68.0,53.0,29.70,WSW,248,7.0,16.0,59,0.00,,,0.00,,2013-05-15 01:21:00,
2013-05-14 20:31:00,68.0,54.0,29.70,SW,215,6.0,16.0,61,0.00,,,0.00,,2013-05-15 01:31:00,
2013-05-14 20:42:00,68.0,54.0,29.70,SW,215,6.0,16.0,61,0.00,,,0.00,,2013-05-15 01:42:00,
2013-05-14 20:52:00,69.0,54.0,29.67,SW,225,2.0,19.0,59,0.00,,,0.00,,2013-05-15 01:52:00,
2013-05-14 21:01:00,71.0,54.0,29.69,SW,220,9.0,24.0,56,0.00,,,0.00,,2013-05-15 02:01:00,
2013-05-14 21:11:00,71.0,54.0,29.69,SW,220,9.0,24.0,56,0.00,,,0.00,,2013-05-15 02:11:00,
2013-05-14 21:21:00,77.0,57.0,29.75,WSW,243,16.0,45.0,50,0.01,,,0.01,,2013-05-15 02:21:00,
2013-05-14 21:31:00,76.0,55.0,29.65,SSE,151,10.0,24.0,49,0.03,,,0.03,,2013-05-15 02:31:00,
2013-05-14 21:52:00,74.0,56.0,29.68,SW,215,7.0,16.0,54,0.03,,,0.03,,2013-05-15 02:52:00,
2013-05-14 22:01:00,75.0,57.0,29.68,SSW,205,7.0,17.0,53,0.04,,,0.04,,2013-05-15 03:01:00,
2013-05-14 22:12:00,75.0,57.0,29.68,SSW,205,7.0,17.0,53,0.04,,,0.04,,2013-05-15 03:12:00,
2013-05-14 22:22:00,74.0,56.0,29.67,SSW,203,5.0,18.0,54,0.03,,,0.04,,2013-05-15 03:22:00,
2013-05-14 22:33:00,75.0,56.0,29.65,SW,225,9.0,19.0,51,0.01,,,0.04,,2013-05-15 03:33:00,
2013-05-14 22:44:00,76.0,56.0,29.64,SW,228,8.0,21.0,50,0.01,,,0.04,,2013-05-15 03:44:00,
2013-05-14 22:54:00,76.0,56.0,29.64,SW,228,8.0,21.0,50,0.01,,,0.04,,2013-05-15 03:54:00,
2013-05-14 23:03:00,76.0,57.0,29.63,SSW,196,8.0,16.0,52,0.00,,,0.04,,2013-05-15 04:03:00,
2013-05-14 23:12:00,76.0,57.0,29.63,SSW,196,8.0,16.0,52,0.00,,,0.04,,2013-05-15 04:12:00,
2013-05-14 23:24:00,75.0,57.0,29.63,West,267,6.0,16.0,54,0.00,,,0.04,,2013-05-15 04:24:00,
2013-05-14 23:33:00,74.0,57.0,29.63,SW,229,8.0,16.0,56,0.00,,,0.04,,2013-05-15 04:33:00,
2013-05-14 23:42:00,74.0,57.0,29.63,SW,229,8.0,16.0,56,0.00,,,0.04,,2013-05-15 04:42:00,
2013-05-14 23:52:00,73.0,58.0,29.63,SW,217,8.0,15.0,59,0.00,,,0.04,,2013-05-15 04:52:00,